Theta_e
322 322 322 323 323 324 324 325 325 325 326 326 326 326 326 327 327 326 326 326 327 327 328 329 330 331 331 332 332 332 331 331 332 331 330 330 330 331 331 330 329 329 330 330 332 332 332 335 335 333 334 333 333 334 333 333 332 332 332 331 332 332 332
322 321 322 323 323 323 324 324 325 325 326 326 327 327 327 327 326 327 327 327 327 327 328 329 330 331 331 331 331 331 330 331 332 332 331 330 330 330 330 329 328 328 329 329 331 330 330 333 334 333 331 330 331 332 333 333 332 332 331 331 331 331 332
321 321 322 322 323 323 323 324 324 325 325 326 327 327 327 326 326 327 327 328 328 328 328 329 329 330 330 330 330 329 329 330 331 331 331 330 329 329 329 328 328 328 329 329 329 329 329 330 332 332 330 329 331 333 333 332 332 332 331 331 331 331 332
321 321 321 322 322 323 323 323 324 324 325 326 326 327 327 326 327 327 327 328 327 328 328 328 329 329 329 329 329 328 328 328 329 329 329 329 329 329 328 328 328 328 330 330 330 329 329 329 330 331 329 329 331 332 332 332 332 332 331 331 331 331 332
321 321 321 322 322 323 323 323 324 324 324 325 326 326 326 327 327 327 328 327 327 328 328 328 328 328 328 328 328 328 328 328 327 328 328 328 328 329 328 329 329 329 329 330 330 329 329 330 330 330 329 330 331 331 331 332 331 331 330 329 329 329 330
320 320 321 322 322 323 323 323 324 323 323 325 326 326 326 327 327 327 327 327 328 328 328 328 328 327 328 328 328 328 328 327 327 327 328 328 328 329 329 329 330 330 330 330 330 330 330 330 330 329 329 330 331 330 331 331 331 331 330 328 328 329 330
319 320 321 322 322 322 323 323 323 323 323 325 326 326 326 327 327 327 327 327 327 328 328 328 328 328 328 328 328 328 328 328 328 328 328 328 329 328 328 329 330 330 330 330 330 330 329 330 329 329 329 329 329 329 330 331 331 331 330 329 329 330 331
319 320 320 321 322 322 322 322 323 323 323 324 325 326 326 327 327 326 326 325 325 326 327 327 327 328 328 328 328 328 328 328 328 328 329 328 329 328 328 328 328 329 330 329 330 329 329 329 329 329 328 329 330 329 330 330 330 330 330 329 329 330 330
319 320 320 321 321 321 322 322 323 323 323 324 324 325 325 326 326 325 324 323 323 324 325 325 326 327 327 328 328 328 328 328 328 328 328 328 328 328 328 328 328 329 329 329 329 329 328 328 329 329 328 328 330 331 331 331 330 330 330 329 330 331 331
319 320 320 321 321 321 322 323 323 323 323 323 322 322 322 323 323 323 323 322 322 322 323 324 325 325 325 326 327 328 328 328 328 328 327 327 327 327 328 328 328 329 328 328 328 328 328 328 328 328 327 327 328 330 331 331 330 329 329 330 330 331 332
319 319 320 320 321 322 322 322 322 321 321 320 320 320 320 321 321 321 321 321 320 320 320 322 323 324 324 325 326 326 327 327 327 327 327 327 327 327 327 327 328 328 327 327 327 327 328 328 327 327 328 327 327 327 329 329 330 328 328 329 330 330 331
319 319 320 320 321 322 321 321 320 319 319 319 319 319 319 319 318 318 318 318 318 318 318 319 321 322 323 324 324 325 326 326 326 326 326 326 326 325 324 325 325 325 324 325 325 326 326 326 327 327 328 328 327 327 327 328 329 329 328 328 329 329 330
318 318 320 320 321 321 320 320 319 318 317 317 317 317 316 316 315 315 315 315 316 316 316 317 319 321 321 322 322 323 324 325 325 325 324 323 322 322 321 320 320 320 321 322 322 323 324 324 325 325 326 327 327 327 326 327 328 328 328 328 329 329 330
317 318 320 320 320 320 318 317 316 316 314 313 314 314 312 311 311 311 311 311 311 311 313 316 318 320 320 320 320 322 324 324 324 322 320 319 319 318 317 316 315 314 316 318 319 320 320 321 321 321 322 323 323 324 325 326 328 328 328 329 329 329 329
317 317 319 319 319 318 317 316 314 313 311 309 309 308 307 306 307 308 308 308 308 308 310 314 317 318 317 317 319 321 323 322 320 318 317 315 314 314 314 313 311 310 311 313 315 314 313 315 316 315 317 317 317 319 320 323 326 328 329 329 328 328 328
316 317 318 319 319 318 317 315 314 313 310 308 308 307 306 304 304 305 305 305 306 308 311 314 315 316 315 315 317 320 321 319 316 315 313 312 311 311 311 309 307 306 306 307 307 306 307 309 310 311 313 314 314 316 317 319 322 325 327 327 327 327 327
315 316 317 318 318 318 316 315 314 312 310 309 309 308 307 305 303 303 303 304 305 308 311 313 314 314 314 315 317 319 318 315 313 312 310 308 307 306 305 304 303 303 303 303 303 303 304 306 307 309 310 311 313 314 315 317 318 321 323 324 324 325 325
315 315 315 316 316 316 316 315 313 312 311 309 309 309 307 304 302 302 302 302 305 309 311 312 312 312 312 314 316 317 315 313 311 309 306 304 302 302 301 301 301 301 302 302 302 303 304 305 307 308 308 309 310 312 313 314 315 317 319 321 322 322 323
314 314 314 315 314 314 314 314 312 311 310 309 308 308 306 302 300 301 301 302 305 309 311 311 311 311 311 312 313 313 313 312 309 305 302 301 300 300 300 300 300 301 302 302 302 303 304 305 305 306 306 307 308 309 310 311 312 315 316 318 318 319 320
314 314 314 314 313 313 312 312 312 311 310 309 308 306 303 300 300 300 301 302 305 308 310 311 311 310 310 311 310 309 309 308 305 302 300 300 300 300 299 299 299 300 301 302 302 302 303 303 304 305 305 305 306 307 307 307 308 310 312 313 313 313 314
313 313 314 313 313 312 312 311 311 310 309 308 307 304 301 299 300 301 302 303 305 307 309 309 310 309 309 310 309 307 306 304 302 300 299 299 299 299 299 299 299 300 300 300 300 300 301 302 303 303 303 303 304 304 304 304 304 306 307 307 307 307 308
312 312 313 313 312 312 311 311 310 309 309 308 306 303 300 298 299 299 301 304 305 306 307 308 308 308 308 308 308 307 306 304 302 300 299 298 298 299 299 299 298 299 300 299 299 299 300 300 301 301 301 301 301 302 302 302 302 303 304 304 304 304 304
311 311 312 311 311 311 310 310 309 309 308 307 306 302 299 297 297 296 298 301 303 304 305 305 306 307 308 307 307 307 306 304 302 301 299 297 298 298 299 298 298 298 299 299 299 299 299 300 299 299 299 300 300 300 301 301 301 302 302 302 302 303 303
310 311 311 311 311 310 310 309 309 308 307 307 306 302 297 295 294 294 294 296 298 301 302 303 305 306 307 307 307 306 304 303 302 302 299 297 297 298 298 298 297 297 297 298 298 298 299 299 299 299 299 299 299 299 300 300 300 301 301 301 301 301 301
310 310 310 311 311 310 310 309 308 307 306 305 305 303 298 295 293 292 292 292 294 296 299 301 304 306 306 306 306 304 303 302 302 301 300 297 297 298 297 297 297 297 296 297 297 298 298 298 298 299 299 299 299 299 300 300 300 300 300 300 300 300 300
310 310 310 310 310 310 309 309 308 307 305 304 305 303 299 297 297 294 292 291 291 292 295 298 302 305 305 306 305 304 303 302 302 301 299 297 297 297 297 297 297 296 296 297 297 297 297 296 297 298 298 298 299 299 299 299 299 299 299 299 299 298 298
310 310 310 310 309 309 309 308 308 307 304 303 304 303 299 299 300 298 295 292 291 291 292 294 298 303 305 305 305 304 303 302 302 301 299 297 296 297 297 297 297 296 296 296 296 297 297 296 295 296 297 297 297 297 298 297 298 298 298 297 297 297 297
309 308 309 309 308 308 308 308 308 307 305 302 301 300 298 299 302 301 298 295 292 291 290 290 293 299 303 304 304 304 303 303 302 301 298 296 296 297 297 297 297 297 297 296 296 296 296 296 295 294 295 295 295 295 295 295 296 296 297 297 296 296 296
308 308 307 308 308 308 308 308 307 307 306 304 301 299 299 301 302 301 300 298 295 292 291 290 291 293 298 302 304 304 303 303 302 301 299 296 296 297 297 297 297 297 297 296 296 296 296 296 295 293 294 295 294 293 293 293 294 295 295 295 295 294 294
308 307 307 308 308 307 307 308 307 307 306 305 304 302 302 302 302 302 301 300 298 295 292 290 290 290 292 296 300 302 303 302 301 301 299 296 295 297 297 297 297 297 297 296 296 295 295 296 294 292 293 293 292 290 290 291 291 292 292 292 292 291 291
307 307 307 308 307 306 307 307 307 307 306 306 305 304 303 303 302 302 301 299 298 298 295 292 290 290 290 291 293 297 300 301 300 299 297 295 296 297 297 297 297 297 297 296 295 294 294 295 294 292 291 291 289 288 289 290 290 290 290 290 289 289 288
307 306 306 307 306 306 306 306 307 307 306 306 305 304 304 303 302 302 301 298 297 298 297 294 291 290 290 290 290 292 295 297 297 295 294 294 296 297 297 297 297 297 296 295 294 293 293 294 293 291 290 290 289 288 288 289 289 289 289 289 288 288 287
307 306 306 306 306 306 305 305 305 306 305 305 305 304 304 303 303 302 300 297 296 297 297 295 292 290 289 289 290 290 291 292 292 291 293 295 296 296 296 296 296 295 295 293 293 293 292 293 293 291 290 290 288 287 287 288 288 288 288 288 288 287 287
305 306 305 306 306 306 306 305 304 304 305 305 305 305 304 303 303 301 299 297 296 295 295 294 292 289 288 289 289 289 289 290 290 291 293 295 296 295 295 295 295 294 293 293 293 292 292 292 292 291 290 290 288 286 287 287 287 288 287 287 287 287 286
305 305 305 305 305 305 306 306 306 305 304 304 303 304 304 303 303 301 299 296 295 294 294 293 291 289 288 288 288 288 289 289 289 292 295 296 296 295 295 295 295 294 293 292 292 292 291 291 291 290 290 289 287 286 286 287 287 287 287 286 286 285 285
306 306 305 304 305 305 305 306 305 305 305 304 303 303 304 303 303 301 298 296 295 294 293 293 291 289 288 288 288 288 288 288 289 293 296 295 295 294 294 294 294 293 292 292 292 291 291 290 290 289 289 288 287 285 286 286 286 287 286 286 285 285 284
306 306 306 305 305 305 305 304 303 303 305 305 303 303 303 303 302 299 296 296 296 294 293 292 291 289 288 288 288 288 288 288 290 294 295 295 294 294 294 293 293 292 292 292 291 291 290 290 289 288 288 288 286 285 285 286 286 286 286 286 285 284 284
Wind_Speed
12 13 12 12 13 14 14 13 11 7 6 6 5 6 6 7 8 9 10 9 9 9 10 10 11 12 13 14 14 15 15 13 13 16 22 21 17 19 19 16 16 17 18 17 13 7 4 3 5 7 10 13 14 16 18 21 23 24 25 25 25 26 27
12 12 12 12 13 15 15 15 13 10 9 8 6 5 5 6 7 7 8 9 8 8 9 9 9 10 12 14 14 14 14 13 13 16 19 18 16 17 17 16 16 16 17 16 13 9 5 3 4 4 8 12 14 18 19 20 23 24 24 24 25 26 27
12 12 13 14 15 15 15 15 14 13 12 11 9 6 4 4 5 6 6 7 7 7 7 6 6 7 9 10 11 12 12 12 14 15 16 16 16 18 18 16 15 13 12 10 9 7 5 6 6 5 9 12 12 16 19 19 21 21 21 22 23 25 26
12 13 14 14 14 14 14 15 15 14 14 13 10 8 6 4 4 5 6 6 6 6 5 5 5 6 7 8 8 9 11 13 14 15 14 14 14 17 17 17 18 17 13 11 11 9 6 7 6 4 11 16 14 15 18 19 19 19 19 20 21 23 24
11 12 13 13 13 12 13 14 14 15 15 12 10 10 9 7 6 6 7 6 5 5 6 6 6 6 7 7 7 7 9 10 11 11 11 11 12 13 13 14 17 20 20 19 18 16 12 11 9 5 8 13 11 12 17 18 18 19 19 20 22 23 22
10 11 12 12 12 12 12 13 14 15 14 11 11 13 12 10 9 10 10 10 8 8 8 9 10 9 9 9 8 7 6 7 8 9 9 9 9 10 11 12 13 15 18 19 18 18 17 15 12 7 8 11 9 10 15 16 16 17 20 22 22 20 19
11 11 11 11 11 11 11 12 13 13 11 10 11 13 11 10 11 13 14 14 12 11 12 13 13 13 13 12 11 10 8 7 7 7 8 8 8 8 9 10 11 12 13 13 15 17 18 17 14 10 8 10 11 10 12 14 14 14 16 20 21 19 18
10 10 10 10 11 11 11 10 10 11 9 9 10 11 11 10 11 12 13 15 14 13 13 13 13 13 13 13 13 13 11 10 9 8 7 7 7 6 6 6 8 8 9 11 13 15 17 17 17 15 10 6 7 7 7 10 12 13 16 20 20 18 15
9 9 10 10 10 10 10 9 10 9 8 9 10 10 10 9 10 11 11 13 13 12 12 12 13 12 13 13 14 13 13 13 12 11 9 8 7 7 6 5 5 5 7 9 11 12 14 15 16 18 15 9 6 4 4 5 6 9 14 15 13 11 9
8 9 10 10 10 9 9 9 10 9 9 10 11 11 11 11 11 11 11 12 12 11 10 10 12 13 13 14 14 14 15 15 14 13 12 11 9 8 7 6 6 6 6 6 8 8 9 11 12 13 16 17 13 6 4 3 3 5 9 10 8 7 9
7 9 10 9 9 9 10 11 12 12 11 11 11 11 12 12 11 11 11 12 12 12 11 10 10 11 14 15 15 15 15 16 16 15 15 14 14 13 13 12 12 11 11 9 8 7 7 8 9 10 13 17 17 12 6 3 4 6 9 11 10 9 12
7 9 9 9 9 10 11 12 12 12 11 10 11 12 12 12 12 12 12 13 13 13 14 12 10 10 14 16 16 17 17 17 18 18 18 19 20 20 21 20 19 19 18 15 14 13 10 9 9 9 11 13 14 15 12 5 2 7 11 11 13 15 16
8 10 9 9 10 10 11 11 10 10 10 11 12 13 14 13 13 13 14 14 15 15 16 15 13 13 16 18 19 19 19 19 19 20 22 23 24 24 25 26 25 24 23 21 20 19 17 16 15 12 11 11 9 9 12 10 4 8 15 15 16 18 18
8 9 9 9 10 10 11 12 13 13 14 15 15 15 15 15 14 14 15 16 17 17 17 17 17 17 18 21 21 21 21 20 21 22 24 24 24 25 25 26 26 25 24 23 22 21 20 20 19 19 18 16 14 13 11 9 6 7 14 15 14 15 15
8 9 10 10 10 11 13 14 15 16 17 18 18 18 18 17 17 16 17 18 18 18 18 18 19 19 21 23 23 23 23 23 24 25 26 26 25 25 25 26 26 25 24 22 21 21 21 20 21 22 22 21 19 19 18 13 8 6 9 12 13 15 16
9 10 11 11 11 11 12 14 15 16 18 18 19 20 20 19 19 18 18 19 19 19 19 19 20 21 23 24 25 25 25 25 26 27 27 27 27 25 25 25 25 24 22 22 21 21 21 21 21 22 22 22 22 21 21 19 14 11 10 11 14 16 17
11 12 12 12 11 11 11 12 13 15 16 17 19 20 20 20 19 19 19 20 20 21 21 21 21 22 24 25 25 25 25 24 24 26 26 27 27 27 26 25 25 23 22 22 22 22 22 22 22 22 22 22 22 21 20 19 17 14 13 13 14 17 18
11 12 12 12 13 12 11 11 12 13 14 17 18 19 20 20 19 19 19 20 21 21 22 22 22 23 25 26 25 24 24 23 24 25 26 26 27 27 27 26 25 24 22 22 23 24 24 24 24 24 24 23 22 21 20 19 18 16 15 14 15 17 19
10 11 12 12 13 14 13 12 12 12 14 16 18 19 19 20 19 19 18 19 20 21 22 22 22 23 24 25 24 23 22 23 24 26 27 26 26 27 27 26 26 26 24 24 24 25 24 25 26 26 25 24 23 22 22 22 21 19 18 17 17 19 20
8 11 13 13 14 14 14 13 13 13 13 16 17 19 20 19 19 19 18 19 20 21 21 22 22 23 23 24 24 24 24 24 24 26 26 25 25 25 26 27 27 27 26 25 25 25 25 25 26 26 26 25 24 24 24 24 23 22 20 18 18 19 19
9 12 14 14 14 14 13 14 14 14 14 15 17 19 19 19 19 19 19 19 20 20 21 22 21 22 22 22 23 24 25 24 25 26 26 26 25 25 26 27 28 26 25 25 25 25 26 26 26 26 26 25 24 24 24 25 24 22 20 18 18 19 19
11 12 13 14 15 14 13 12 13 14 14 15 17 18 18 18 19 20 20 19 19 19 20 21 20 20 20 21 22 23 23 23 24 25 26 26 26 25 26 27 28 26 24 24 25 26 26 26 27 27 27 27 26 25 24 25 24 22 20 19 19 19 20
12 12 14 14 14 14 13 12 12 13 13 14 16 17 17 18 19 20 20 19 18 18 18 18 17 16 17 19 20 22 22 22 23 24 26 26 25 25 26 27 28 27 26 25 26 27 27 26 27 27 28 29 28 27 26 25 23 22 20 18 18 18 18
12 13 14 14 13 13 14 13 12 13 13 12 14 16 17 19 20 20 21 20 19 18 17 15 14 13 14 16 18 20 21 22 23 24 26 26 24 24 26 28 29 29 29 27 27 27 28 27 27 27 27 28 28 27 26 24 23 22 20 19 18 19 17
13 12 12 13 13 13 14 14 13 13 12 12 13 15 17 20 22 21 21 22 21 20 18 14 12 13 14 15 17 19 21 22 24 25 26 26 24 23 25 27 28 29 29 28 27 27 28 28 27 27 27 28 27 27 26 24 23 22 21 19 19 20 19
15 14 13 13 13 14 15 14 13 13 12 11 12 14 16 19 21 22 22 23 23 22 20 17 13 12 13 14 16 18 20 22 23 24 25 26 23 22 24 26 27 28 28 28 27 27 27 28 27 27 28 28 28 27 25 24 23 22 22 21 20 22 22
15 15 14 14 14 14 14 14 13 13 12 12 13 15 16 17 19 21 22 23 24 23 22 19 14 11 11 12 13 15 17 19 21 22 24 24 23 22 23 24 25 26 27 27 27 27 27 28 28 27 28 29 28 27 26 25 24 23 23 23 23 23 22
15 14 14 15 15 14 13 14 14 13 13 13 14 15 16 16 17 18 20 21 22 23 22 20 16 13 11 10 11 12 14 16 18 20 21 22 21 20 20 21 22 23 24 25 25 25 25 26 27 28 28 28 28 28 27 26 25 23 22 22 22 22 22
15 14 14 15 15 13 13 14 14 12 12 13 14 15 14 14 14 16 17 18 20 22 22 20 17 14 11 10 9 10 11 12 14 15 17 19 18 17 18 19 20 21 22 23 23 23 23 24 26 28 28 27 27 27 27 24 22 21 21 21 21 21 21
16 15 15 15 14 11 11 14 14 12 11 12 12 12 12 12 12 13 14 16 17 19 21 20 18 15 13 10 9 9 10 11 12 13 14 15 15 15 16 17 18 19 21 21 21 21 21 22 26 28 27 26 27 27 26 24 21 21 21 21 21 21 22
16 15 15 14 13 10 10 14 15 12 10 10 10 11 12 11 10 10 12 14 15 16 18 19 18 16 14 11 9 8 9 10 12 12 12 13 14 14 14 15 16 18 19 20 19 20 20 22 25 27 26 26 28 28 26 23 23 23 23 23 24 24 25
16 16 15 14 13 12 11 13 13 12 10 9 8 10 11 10 10 9 9 11 13 14 15 17 17 16 14 12 10 8 7 7 10 11 12 13 13 13 14 15 15 17 17 18 18 19 20 21 23 26 25 26 29 27 24 22 23 23 24 25 26 27 27
16 16 16 15 14 12 12 12 11 12 11 9 8 11 11 10 10 9 8 9 12 12 13 15 16 15 14 12 10 9 8 8 10 11 13 13 13 13 14 14 14 16 16 17 17 18 19 19 21 23 24 26 26 23 21 22 23 23 24 24 24 26 27
17 17 16 16 15 13 12 11 10 11 11 9 8 11 13 12 11 10 8 8 10 12 12 13 14 14 13 11 10 9 9 10 10 11 12 13 12 12 13 14 14 15 16 16 16 17 17 18 19 21 22 23 22 19 20 22 23 23 25 25 25 27 28
17 16 15 16 15 14 12 11 10 9 10 9 8 11 15 15 14 12 9 7 9 11 11 12 13 12 11 10 9 9 9 9 10 10 11 12 11 13 14 15 15 16 16 15 15 16 16 16 18 20 19 18 20 20 21 22 23 24 26 27 28 30 31
17 16 15 15 16 15 14 12 10 8 10 10 9 12 17 17 15 13 10 8 8 8 9 9 10 11 10 9 8 8 8 8 9 10 11 11 12 14 16 16 16 16 15 14 14 15 15 16 18 18 17 17 20 22 21 21 23 24 26 28 29 30 30
18 17 16 15 15 14 13 12 10 9 12 13 12 15 17 17 16 14 12 9 7 6 7 8 9 9 8 7 7 7 7 7 9 10 11 11 13 14 16 16 16 15 14 13 13 14 15 17 18 18 17 18 22 23 23 23 23 24 26 27 28 28 27
Wind_Direction
8 2 4 7 10 11 14 18 16 13 21 21 1 343 343 343 331 319 317 317 319 317 308 301 297 292 288 285 282 280 280 275 261 254 258 263 266 270 277 284 284 278 270 263 253 248 263 285 277 259 250 247 247 248 256 265 270 271 272 272 271 272 271
11 7 9 11 14 15 18 24 28 32 38 43 36 12 353 345 336 327 323 319 321 320 307 301 300 294 289 289 288 287 283 273 265 258 255 255 254 261 273 281 285 289 288 280 262 237 215 241 273 267 269 276 270 261 262 270 276 277 277 277 276 275 274
13 14 16 17 18 19 21 25 29 35 38 40 42 38 12 344 337 334 329 327 332 332 319 305 297 289 287 291 297 298 290 277 271 267 262 258 254 254 256 260 266 270 279 280 260 236 216 222 236 254 266 270 269 268 273 278 281 282 280 281 281 279 276
16 16 15 15 19 20 22 22 23 28 31 34 41 44 33 15 4 352 344 337 336 342 342 332 320 311 306 308 313 310 301 289 280 275 267 258 256 259 257 255 256 255 255 256 256 257 242 221 231 256 259 258 256 266 280 286 283 281 282 284 285 284 283
20 19 16 13 17 18 16 16 19 24 28 34 43 39 29 23 24 22 13 5 3 11 12 9 4 355 344 335 329 324 317 304 291 280 270 262 259 261 260 257 255 252 253 256 261 261 250 239 241 240 254 262 261 266 280 286 282 279 282 285 286 286 285
23 21 18 17 19 17 13 15 18 21 23 29 33 28 24 26 35 39 38 38 38 34 31 33 34 28 21 13 2 353 344 332 313 295 284 281 275 267 263 261 261 262 264 268 268 265 261 255 251 251 264 269 267 273 281 282 280 282 285 288 290 289 288
23 19 19 20 22 19 19 22 24 24 25 27 28 28 31 41 49 52 51 51 51 49 47 48 47 44 39 33 25 19 14 11 360 332 310 302 297 291 280 271 270 273 278 279 274 269 267 262 253 248 257 268 267 266 274 274 272 277 283 288 292 293 295
21 18 23 26 26 25 25 28 33 36 35 31 32 40 52 62 64 63 61 60 60 60 58 53 51 51 48 43 37 32 30 30 27 8 342 330 326 323 311 291 282 282 286 286 281 276 272 268 262 253 241 251 268 260 261 268 266 267 275 286 294 297 302
25 26 31 34 33 32 32 38 47 49 48 48 51 56 63 68 68 68 66 62 61 59 56 51 50 52 51 50 46 41 39 36 32 26 15 3 358 0 358 340 317 306 303 300 295 287 279 275 269 260 249 242 252 262 264 269 267 270 276 283 292 302 314
36 37 39 40 39 40 46 58 67 71 71 69 68 66 65 66 65 64 60 55 53 49 48 48 49 49 49 51 51 47 44 42 40 39 35 29 26 25 25 20 12 3 351 334 321 310 294 283 276 270 262 252 248 253 265 266 260 271 283 285 287 303 312
50 50 50 49 51 60 68 76 82 82 82 78 74 67 62 61 58 55 53 49 45 42 44 49 50 50 50 52 52 50 48 47 47 46 44 44 46 48 48 44 39 35 32 25 13 0 335 310 301 291 276 259 247 240 239 261 276 277 288 293 295 303 303
69 60 60 63 70 79 80 81 81 78 76 68 63 59 53 50 48 48 50 49 48 47 48 52 56 57 57 58 57 53 52 52 52 55 56 56 57 57 56 53 52 49 47 47 46 39 27 8 345 319 301 283 261 249 251 256 278 282 285 295 303 307 308
78 67 72 78 83 85 80 75 71 66 62 55 53 52 47 44 44 47 51 51 52 53 52 54 63 68 64 62 60 57 58 58 59 63 64 62 60 58 56 54 51 49 48 48 46 43 40 35 27 17 3 341 315 291 278 265 243 280 290 299 308 313 319
78 73 85 92 92 87 76 72 72 70 66 60 56 53 49 50 51 53 56 55 55 54 54 56 63 69 68 65 64 62 63 66 67 68 66 61 57 54 51 50 46 44 44 44 41 38 37 36 33 31 31 24 16 13 346 300 265 274 293 306 320 329 338
72 79 97 101 98 90 79 77 75 72 70 67 63 59 57 56 57 58 59 58 57 55 56 59 63 67 67 67 66 65 68 73 73 71 66 60 54 50 46 43 40 38 38 39 37 34 33 34 34 31 32 31 25 25 24 2 331 305 301 316 340 354 0
75 89 105 106 104 102 91 84 79 75 75 73 66 62 58 56 56 57 59 59 58 58 61 64 66 68 69 68 68 70 75 77 73 69 64 57 51 48 44 40 37 34 34 37 36 34 34 35 35 33 32 31 27 25 29 26 15 358 339 340 358 4 5
85 94 102 102 106 113 109 97 87 84 82 74 65 59 54 52 53 55 58 59 59 62 65 67 69 71 71 71 73 75 77 75 71 66 60 54 49 46 44 41 38 35 35 38 38 38 39 39 38 36 32 30 29 28 28 30 27 17 5 1 5 6 7
95 97 100 99 100 106 116 115 101 93 86 74 64 57 51 49 50 54 58 60 61 64 66 68 72 74 73 74 79 81 77 73 69 64 58 54 50 47 46 44 41 39 38 39 40 40 41 42 39 37 34 31 29 29 29 28 26 23 19 12 6 7 13
103 105 106 105 101 98 104 116 116 104 89 76 65 56 52 51 52 57 62 64 66 66 67 70 74 75 74 76 80 81 78 74 67 60 55 53 51 48 48 47 43 41 42 44 43 42 42 42 39 37 36 35 33 32 32 30 28 27 24 21 14 10 13
109 114 111 109 108 101 94 101 114 113 94 77 67 59 57 57 59 62 66 68 69 69 70 73 74 75 75 77 80 80 77 73 67 60 56 55 54 52 51 50 46 45 48 50 48 44 43 43 42 40 38 35 32 32 32 31 32 31 26 22 18 12 9
115 118 118 113 111 107 96 94 105 112 99 80 70 64 63 64 64 66 68 69 70 70 72 73 74 75 76 78 84 82 75 70 66 62 59 56 55 56 55 53 50 51 54 56 54 51 48 46 46 44 40 35 32 33 33 33 35 34 29 24 19 14 11
121 120 121 116 112 110 106 99 100 105 99 84 75 71 69 68 67 69 70 71 70 69 70 70 71 74 76 81 88 85 75 68 64 61 59 55 54 57 59 57 54 55 60 62 62 61 59 56 52 47 41 38 38 39 39 38 37 34 31 29 22 16 14
126 122 121 116 112 112 113 108 103 102 97 87 81 77 74 71 68 69 70 71 71 69 68 68 71 77 79 84 91 86 76 69 64 60 57 55 55 56 59 61 59 58 60 62 63 64 64 64 60 54 49 45 43 42 42 41 39 35 32 30 24 19 17
130 125 123 120 118 121 122 116 109 105 98 91 90 86 78 71 68 69 69 70 70 69 67 67 76 83 82 86 91 86 78 71 64 59 55 54 57 59 61 62 61 58 56 56 60 63 64 64 62 59 56 52 48 45 43 40 38 35 32 30 27 25 23
136 132 129 125 126 131 130 122 114 106 100 100 103 95 82 72 69 70 69 69 68 66 64 66 80 87 83 87 93 86 78 71 64 57 54 53 57 62 63 61 60 57 53 52 56 60 62 62 61 60 59 57 55 52 49 45 40 36 34 32 31 29 26
139 139 137 131 130 134 132 125 118 106 100 108 113 104 90 77 70 68 67 67 66 64 62 61 72 85 85 90 97 90 78 71 64 59 54 52 56 62 62 59 57 55 52 51 52 55 57 59 61 61 60 58 56 55 55 53 49 46 43 40 37 33 30
139 140 143 137 131 132 132 129 123 110 100 104 113 111 99 84 73 66 64 65 64 63 61 58 63 77 85 90 98 95 84 74 67 61 54 52 56 60 59 56 54 51 50 48 47 48 51 54 57 58 58 56 54 54 52 50 50 51 50 47 43 39 37
143 142 147 146 136 131 136 137 131 117 103 99 107 113 105 91 79 69 63 60 61 61 60 58 60 67 78 88 94 96 92 82 72 64 55 50 53 56 55 54 52 49 47 46 44 44 46 49 53 54 55 53 51 50 49 47 48 49 50 49 46 41 39
147 142 146 150 142 135 141 146 141 129 115 105 107 112 109 96 85 76 66 59 58 59 57 55 58 63 71 81 86 90 93 89 80 70 56 49 52 55 53 51 50 47 45 43 43 43 44 47 50 50 52 50 46 45 46 45 49 52 51 51 47 42 41
150 145 145 148 145 139 146 155 154 143 131 122 115 114 115 106 94 84 73 63 59 57 55 51 51 56 62 69 77 86 91 88 85 77 61 53 57 61 54 49 47 45 43 41 41 42 43 45 47 46 47 47 42 40 40 40 46 52 51 51 49 44 42
154 151 150 149 143 133 141 159 163 155 142 134 126 122 122 119 110 94 79 70 64 58 55 51 47 48 53 57 65 81 92 92 88 81 69 64 65 64 56 51 47 44 45 44 42 42 41 42 43 42 42 43 40 37 36 35 38 44 46 46 44 42 40
159 155 153 153 146 133 134 147 156 157 149 138 137 140 136 131 126 110 89 78 70 61 55 51 45 43 46 50 57 69 87 92 82 76 74 73 71 65 58 53 50 50 51 49 46 43 40 40 42 40 39 41 38 34 33 33 33 36 39 39 37 35 35
164 158 155 156 153 143 138 138 142 151 147 133 138 155 154 149 142 127 105 88 77 64 54 48 43 39 40 43 51 60 71 78 76 75 76 74 70 64 57 54 55 58 60 57 51 46 43 42 43 41 40 41 37 31 32 36 36 36 35 35 33 30 29
167 162 160 160 157 150 145 140 138 144 145 135 139 159 167 165 153 139 120 98 81 67 54 44 39 37 36 36 41 48 60 71 75 79 80 75 67 59 54 57 65 68 67 62 56 50 47 46 45 43 43 42 37 32 35 37 37 37 35 32 30 27 25
166 163 162 162 160 156 152 151 149 149 151 146 142 159 171 171 161 149 138 112 85 70 55 41 34 34 33 32 34 40 51 66 78 87 87 78 65 57 57 65 75 76 71 66 59 53 50 48 47 45 44 41 36 34 37 37 36 35 33 30 28 25 21
165 162 160 158 156 154 156 163 171 176 176 171 156 156 167 170 165 159 150 128 98 74 56 39 29 29 30 29 33 39 48 65 86 95 88 76 66 64 69 77 83 80 74 67 60 53 50 48 47 45 41 38 35 34 36 36 35 33 32 29 26 22 18
172 168 165 164 162 162 166 173 173 175 181 180 167 157 163 169 167 161 157 145 121 86 56 38 25 24 27 30 37 46 56 74 90 92 85 80 78 77 80 84 84 80 75 68 61 56 52 47 45 44 40 36 34 33 34 35 34 32 31 27 22 17 13